timestamp,wind_dir_avg,wind_spd_avg,wind_spd_max_dir,wind_spd_gust,battery_voltage,lat,long
2021-04-20 00:04:01+00:00,226.0,3.79,227.0,4.06,12.81,47.59359,-54.27349
2021-04-20 00:14:00+00:00,234.0,3.28,235.0,3.65,12.57,47.59359,-54.27349
2021-04-20 00:24:00+00:00,251.0,3.76,255.0,4.32,12.57,47.59359,-54.27349
2021-04-20 00:34:00+00:00,262.0,2.96,266.0,3.28,12.57,47.59359,-54.27349
2021-04-20 00:44:00+00:00,270.0,3.66,272.0,4.24,12.57,47.59359,-54.27349
2021-04-20 00:54:00+00:00,285.0,4.67,285.0,5.55,12.57,47.59359,-54.27349
2021-04-20 01:04:00+00:00,289.0,5.31,290.0,5.97,12.57,47.59359,-54.27349
2021-04-20 01:14:01+00:00,300.0,5.67,297.0,6.58,12.49,47.59359,-54.27349
2021-04-20 01:24:01+00:00,297.0,5.73,299.0,7.04,12.49,47.59359,-54.27349
2021-04-20 01:34:01+00:00,308.0,6.53,305.0,7.8,12.49,47.59359,-54.27349
2021-04-20 01:44:01+00:00,318.0,6.96,318.0,7.71,12.49,47.59359,-54.27349
2021-04-20 01:54:01+00:00,326.0,6.35,328.0,7.18,12.49,47.59359,-54.27349
2021-04-20 02:04:01+00:00,337.0,6.43,338.0,6.98,12.49,47.59359,-54.27349
2021-04-20 02:14:01+00:00,348.0,8.83,344.0,10.15,12.49,47.59359,-54.27349
2021-04-20 02:24:01+00:00,359.0,8.08,355.0,9.27,12.49,47.59359,-54.27349
2021-04-20 02:34:01+00:00,348.0,7.18,352.0,8.42,12.49,47.59359,-54.27349
2021-04-20 02:44:01+00:00,353.0,6.21,357.0,7.6,12.49,47.59359,-54.27349
2021-04-20 02:54:01+00:00,357.0,6.97,4.0,8.29,12.49,47.59359,-54.27349
2021-04-20 03:04:01+00:00,0.0,7.24,0.0,8.33,12.49,47.59359,-54.27349
2021-04-20 03:14:00+00:00,3.0,8.77,358.0,10.82,12.49,47.59359,-54.27349
2021-04-20 03:24:00+00:00,355.0,6.93,351.0,7.92,12.49,47.59359,-54.27349
2021-04-20 03:34:00+00:00,355.0,8.85,352.0,9.39,12.49,47.59359,-54.27349
2021-04-20 03:44:00+00:00,354.0,7.67,355.0,8.64,12.49,47.59359,-54.27349
2021-04-20 03:54:00+00:00,356.0,8.5,358.0,9.55,12.49,47.59359,-54.27349
2021-04-20 04:04:00+00:00,354.0,6.88,355.0,7.4,12.49,47.59359,-54.27349
2021-04-20 04:14:00+00:00,353.0,6.66,354.0,7.42,12.49,47.59359,-54.27349
2021-04-20 04:24:00+00:00,349.0,6.88,348.0,8.02,12.49,47.59359,-54.27349
2021-04-20 04:34:00+00:00,341.0,6.14,340.0,6.84,12.49,47.59359,-54.27349
2021-04-20 04:44:00+00:00,342.0,6.75,341.0,7.67,12.49,47.59359,-54.27349
2021-04-20 04:54:00+00:00,355.0,6.67,352.0,7.08,12.49,47.59359,-54.27349
2021-04-20 05:04:00+00:00,355.0,5.64,352.0,7.14,12.49,47.59359,-54.27349
2021-04-20 05:14:01+00:00,355.0,5.68,356.0,6.47,12.41,47.59359,-54.27349
2021-04-20 05:24:01+00:00,349.0,6.44,356.0,7.48,12.41,47.59359,-54.27349
2021-04-20 05:34:01+00:00,346.0,6.74,350.0,7.96,12.41,47.59359,-54.27349
2021-04-20 05:44:01+00:00,342.0,5.95,342.0,6.64,12.41,47.59359,-54.27349
2021-04-20 05:54:01+00:00,346.0,8.71,348.0,9.71,12.41,47.59359,-54.27349
2021-04-20 06:04:01+00:00,349.0,6.66,351.0,7.85,12.41,47.59359,-54.27349
2021-04-20 06:14:01+00:00,333.0,7.1,329.0,7.79,12.41,47.59359,-54.27349
2021-04-20 06:24:01+00:00,339.0,7.15,343.0,8.28,12.41,47.59359,-54.27349
2021-04-20 06:34:01+00:00,336.0,6.59,333.0,7.97,12.41,47.59359,-54.27349
2021-04-20 06:44:01+00:00,339.0,7.26,348.0,8.76,12.41,47.59359,-54.27349
2021-04-20 06:54:01+00:00,337.0,7.73,333.0,8.81,12.41,47.59359,-54.27349
2021-04-20 07:04:01+00:00,339.0,6.11,333.0,6.73,12.41,47.59359,-54.27349
2021-04-20 07:14:01+00:00,335.0,7.8,327.0,8.95,12.41,47.59359,-54.27349
2021-04-20 07:24:01+00:00,339.0,8.17,335.0,9.24,12.41,47.59359,-54.27349
2021-04-20 07:34:01+00:00,339.0,6.65,337.0,7.29,12.41,47.59359,-54.27349
2021-04-20 07:44:01+00:00,341.0,6.38,338.0,7.08,12.41,47.59359,-54.27349
2021-04-20 07:54:01+00:00,335.0,6.22,328.0,7.08,12.41,47.59359,-54.27349
2021-04-20 08:04:01+00:00,345.0,7.87,343.0,9.5,12.41,47.59359,-54.27349
2021-04-20 08:14:00+00:00,342.0,6.8,336.0,8.01,12.41,47.59359,-54.27349
2021-04-20 08:24:00+00:00,338.0,11.45,341.0,13.51,12.41,47.59359,-54.27349
2021-04-20 08:34:00+00:00,323.0,7.2,329.0,9.05,12.41,47.59359,-54.27349
2021-04-20 08:44:00+00:00,325.0,8.2,322.0,9.31,12.41,47.59359,-54.27349
2021-04-20 08:54:00+00:00,325.0,7.5,322.0,9.21,12.41,47.59359,-54.27349
2021-04-20 09:04:00+00:00,331.0,7.27,337.0,9.29,12.41,47.59359,-54.27349
2021-04-20 09:14:00+00:00,329.0,8.52,325.0,11.69,12.41,47.59359,-54.27349
2021-04-20 09:24:00+00:00,341.0,8.13,342.0,9.67,12.41,47.59359,-54.27349
2021-04-20 09:34:00+00:00,330.0,7.99,333.0,9.09,12.41,47.59359,-54.27349
2021-04-20 09:44:00+00:00,337.0,11.07,341.0,13.45,12.41,47.59359,-54.27349
2021-04-20 09:54:00+00:00,319.0,6.77,320.0,8.34,12.41,47.59359,-54.27349
2021-04-20 10:04:00+00:00,340.0,8.37,345.0,9.4,12.41,47.59359,-54.27349
2021-04-20 10:14:00+00:00,331.0,8.71,330.0,10.06,12.57,47.59359,-54.27349
2021-04-20 10:24:00+00:00,330.0,9.96,331.0,12.4,12.57,47.59359,-54.27349
2021-04-20 10:34:00+00:00,329.0,11.43,326.0,12.53,12.57,47.59359,-54.27349
2021-04-20 10:44:00+00:00,329.0,9.61,328.0,11.35,12.57,47.59359,-54.27349
2021-04-20 10:54:00+00:00,332.0,10.54,341.0,11.64,12.57,47.59359,-54.27349
2021-04-20 11:04:00+00:00,333.0,9.53,342.0,11.4,12.57,47.59359,-54.27349
2021-04-20 11:14:00+00:00,348.0,9.58,353.0,10.94,13.76,47.59359,-54.27349
2021-04-20 11:24:00+00:00,325.0,9.17,327.0,10.6,13.76,47.59359,-54.27349
2021-04-20 11:34:00+00:00,329.0,7.77,331.0,8.77,13.76,47.59359,-54.27349
2021-04-20 11:44:00+00:00,341.0,11.06,352.0,12.54,13.76,47.59359,-54.27349
2021-04-20 11:54:00+00:00,334.0,8.86,331.0,9.91,13.76,47.59359,-54.27349
2021-04-20 12:04:00+00:00,328.0,12.23,328.0,14.57,13.76,47.59359,-54.27349
2021-04-20 12:14:00+00:00,338.0,9.41,340.0,10.57,13.84,47.59359,-54.27349
2021-04-20 12:24:00+00:00,341.0,8.83,347.0,12.0,13.84,47.59359,-54.27349
2021-04-20 12:34:00+00:00,330.0,11.92,333.0,13.62,13.84,47.59359,-54.27349
2021-04-20 12:44:00+00:00,330.0,11.08,335.0,12.38,13.84,47.59359,-54.27349
2021-04-20 12:54:00+00:00,340.0,10.34,335.0,12.7,13.84,47.59359,-54.27349
2021-04-20 13:04:00+00:00,333.0,10.07,339.0,11.86,13.84,47.59359,-54.27349
2021-04-20 13:14:01+00:00,331.0,11.66,330.0,14.8,13.92,47.59359,-54.27349
2021-04-20 13:24:01+00:00,334.0,10.93,326.0,12.8,13.92,47.59359,-54.27349
2021-04-20 13:34:01+00:00,347.0,13.34,343.0,14.58,13.92,47.59359,-54.27349
2021-04-20 13:44:01+00:00,345.0,9.29,338.0,10.8,13.92,47.59359,-54.27349
2021-04-20 13:54:01+00:00,338.0,12.1,338.0,14.04,13.92,47.59359,-54.27349
2021-04-20 14:04:01+00:00,341.0,9.77,343.0,11.25,13.92,47.59359,-54.27349
2021-04-20 14:14:01+00:00,352.0,12.3,353.0,13.68,14.32,47.59359,-54.27349
2021-04-20 14:24:01+00:00,348.0,13.32,347.0,15.12,14.32,47.59359,-54.27349
2021-04-20 14:34:01+00:00,345.0,12.57,339.0,15.33,14.32,47.59359,-54.27349
2021-04-20 14:44:01+00:00,340.0,12.64,345.0,14.63,14.32,47.59359,-54.27349
2021-04-20 14:54:01+00:00,351.0,13.07,349.0,15.3,14.32,47.59359,-54.27349
2021-04-20 15:04:01+00:00,349.0,11.35,356.0,12.88,14.32,47.59359,-54.27349
2021-04-20 15:14:01+00:00,359.0,12.11,358.0,14.06,14.4,47.59359,-54.27349
2021-04-20 15:24:01+00:00,348.0,12.11,348.0,13.62,14.4,47.59359,-54.27349
2021-04-20 15:34:01+00:00,357.0,11.57,358.0,13.38,14.4,47.59359,-54.27349
2021-04-20 15:44:01+00:00,344.0,8.88,345.0,10.27,14.4,47.59359,-54.27349
2021-04-20 15:54:01+00:00,352.0,10.79,353.0,12.13,14.4,47.59359,-54.27349
2021-04-20 16:04:01+00:00,333.0,12.75,331.0,15.18,14.4,47.59359,-54.27349
2021-04-20 16:14:00+00:00,345.0,11.12,347.0,13.1,14.32,47.59359,-54.27349
2021-04-20 16:24:00+00:00,354.0,12.59,353.0,14.76,14.32,47.59359,-54.27349
2021-04-20 16:34:00+00:00,352.0,11.47,357.0,12.79,14.32,47.59359,-54.27349
2021-04-20 16:44:00+00:00,349.0,10.17,345.0,12.11,14.32,47.59359,-54.27349
2021-04-20 16:54:00+00:00,357.0,10.06,357.0,12.15,14.32,47.59359,-54.27349
2021-04-20 17:04:00+00:00,355.0,10.82,357.0,12.76,14.32,47.59359,-54.27349
2021-04-20 17:14:01+00:00,343.0,9.78,344.0,10.69,13.76,47.59359,-54.27349
2021-04-20 17:24:01+00:00,342.0,12.61,343.0,14.4,13.76,47.59359,-54.27349
2021-04-20 17:34:01+00:00,354.0,10.81,353.0,12.39,13.76,47.59359,-54.27349
2021-04-20 17:44:01+00:00,341.0,10.05,337.0,12.04,13.76,47.59359,-54.27349
2021-04-20 17:54:01+00:00,349.0,10.85,353.0,12.71,13.76,47.59359,-54.27349
2021-04-20 18:04:01+00:00,336.0,10.18,333.0,12.07,13.76,47.59359,-54.27349
2021-04-20 18:14:01+00:00,345.0,11.62,342.0,13.39,13.92,47.59359,-54.27349
2021-04-20 18:24:01+00:00,343.0,10.84,345.0,13.46,13.92,47.59359,-54.27349
2021-04-20 18:34:01+00:00,350.0,10.53,342.0,12.48,13.92,47.59359,-54.27349
2021-04-20 18:44:01+00:00,345.0,10.05,334.0,12.33,13.92,47.59359,-54.27349
2021-04-20 18:54:01+00:00,353.0,10.34,355.0,11.81,13.92,47.59359,-54.27349
2021-04-20 19:04:01+00:00,350.0,11.5,357.0,12.97,13.92,47.59359,-54.27349
2021-04-20 19:14:01+00:00,346.0,9.82,342.0,12.11,13.84,47.59359,-54.27349
2021-04-20 19:24:01+00:00,343.0,10.31,344.0,11.61,13.84,47.59359,-54.27349
2021-04-20 19:34:01+00:00,338.0,8.45,339.0,9.22,13.84,47.59359,-54.27349
2021-04-20 19:44:01+00:00,353.0,8.64,348.0,10.21,13.84,47.59359,-54.27349
2021-04-20 19:54:01+00:00,354.0,9.18,359.0,10.69,13.84,47.59359,-54.27349
2021-04-20 20:04:01+00:00,345.0,11.52,347.0,13.06,13.84,47.59359,-54.27349
2021-04-20 20:14:01+00:00,348.0,9.45,338.0,10.88,13.76,47.59359,-54.27349
2021-04-20 20:24:01+00:00,353.0,10.07,356.0,11.23,13.76,47.59359,-54.27349
2021-04-20 20:34:01+00:00,345.0,9.64,346.0,11.13,13.76,47.59359,-54.27349
2021-04-20 20:44:01+00:00,354.0,8.8,356.0,9.82,13.76,47.59359,-54.27349
2021-04-20 20:54:01+00:00,353.0,10.56,357.0,12.05,13.76,47.59359,-54.27349
2021-04-20 21:04:01+00:00,356.0,10.82,359.0,11.84,13.76,47.59359,-54.27349
2021-04-20 21:14:01+00:00,354.0,10.15,340.0,12.07,13.76,47.59359,-54.27349
2021-04-20 21:24:01+00:00,338.0,9.61,335.0,11.78,13.76,47.59359,-54.27349
2021-04-20 21:34:01+00:00,345.0,10.73,347.0,12.59,13.76,47.59359,-54.27349
2021-04-20 21:44:01+00:00,343.0,9.56,343.0,10.85,13.76,47.59359,-54.27349
2021-04-20 21:54:01+00:00,347.0,11.13,346.0,13.59,13.76,47.59359,-54.27349
2021-04-20 22:04:01+00:00,347.0,9.21,344.0,10.06,13.76,47.59359,-54.27349
2021-04-20 22:14:01+00:00,345.0,11.91,347.0,14.37,13.44,47.59359,-54.27349
2021-04-20 22:24:01+00:00,343.0,11.89,346.0,13.48,13.44,47.59359,-54.27349
2021-04-20 22:34:01+00:00,343.0,11.03,342.0,13.0,13.44,47.59359,-54.27349
2021-04-20 22:44:01+00:00,337.0,10.29,329.0,11.58,13.44,47.59359,-54.27349
2021-04-20 22:54:01+00:00,340.0,11.43,343.0,13.29,13.44,47.59359,-54.27349
2021-04-20 23:04:01+00:00,345.0,8.95,345.0,10.46,13.44,47.59359,-54.27349
2021-04-20 23:14:01+00:00,347.0,9.08,337.0,10.85,12.89,47.59359,-54.27349
2021-04-20 23:24:01+00:00,349.0,9.65,347.0,10.77,12.89,47.59359,-54.27349
2021-04-20 23:34:01+00:00,350.0,10.65,349.0,12.37,12.89,47.59359,-54.27349
2021-04-20 23:44:01+00:00,349.0,9.62,347.0,10.71,12.89,47.59359,-54.27349
2021-04-20 23:54:01+00:00,343.0,11.15,336.0,12.67,12.89,47.59359,-54.27349
